Regional Weather Roundup
Issued by NWS Goodland, KS

Home | Current Version | Previous Version | Graphics & Text | Print | Product List | Glossary On
Versions: 1 2 3 4 5 6 7 8 9 10 11 12 13 14 15 16 17 18 19 20 21 22 23 24 25 26 27 28 29 30 31 32 33 34 35 36 37 38 39 40 41 42 43 44 45 46 47 48 49 50
000
ASUS43 KGLD 272108
RWRGLD

GOODLAND FORECAST AREA HOURLY WEATHER ROUNDUP
NATIONAL WEATHER SERVICE GOODLAND KS
300 PM MDT WED MAY 27 2015

...OFFICIAL OBSERVATIONS...

CITY           SKY/WX    TMP DP  RH WIND       PRES   REMARKS
GOODLAND KS    MOSUNNY   75  61  61 SE18G25   29.99F
HILL CITY KS   MOSUNNY   74  59  59 SE12      30.04F
IMPERIAL NEB   PTSUNNY   69  58  67 SE16      29.98F
MCCOOK NEB     PTSUNNY   74  58  57 SE18      30.02F
AKRON CO       PTSUNNY   71  48  43 S16       30.02S
BURLINGTON CO  MOSUNNY   79  51  37 S21G29    30.00F
LIMON CO       TSTM      65  42  43 W23G29    30.07R
$$

...UNOFFICIAL OBSERVATIONS...

CITY           SKY/WX    TMP DP  RH WIND       PRES   REMARKS
COLBY KS       SUNNY     73  64  73 SE21G26   30.04S
GOVE KS          N/A     72  32  23 MISG        N/A
LENORA KS        N/A     72  32  23 MISG        N/A
NORTON KS      PTSUNNY   75  54  46 SE14      30.03
SHARON SPRINGS   N/A     74  55  51 MISG        N/A
KIT CARSON CO    N/A     79  53  39 MISG        N/A
$$


USA.gov is the U.S. government's official web portal to all federal, state and local government web resources and services.